Millville Municipal Airport

Jump to: basic info | weather | frequencies | runways | comments

Related pages: nearby airports | nearby navaids | notams | map

Basic information (top)

Codes: KMIV MIV
Location: lon 39.367802, lat -75.072197, elev 85 ft / 26 m msl
Status: medium_airport
Scheduled airline service: no
Links: Wikipedia Mobile

Weather (top)

Current conditions (rec'd 2014/11/24 16:54Z):

KMIV 241654Z AUTO 22011G21KT 10SM BKN030 21/15 A2968

Airport forecast (rec'd 2014/11/24 12:45Z):

TAF KMIV 241140Z 2412/2512 17013G25KT P6SM OVC003 WS020/20055KT 
     FM241400 20014G24KT P6SM OVC008 
     FM241700 20016G28KT P6SM OVC020 
     FM242100 20015G22KT P6SM OVC050 
     FM250000 23008KT P6SM OVC050

Frequencies (top)

Verify before use: may be inaccurate or out of date.

A/D: 124.6 MHz (APP/DEP)
ASOS: 128.125 MHz (ASOS)
CTAF: 123.65 MHz (CTAF)
RDO: 123.65 MHz (RDO)
UNIC: 123 MHz (UNICOM)

Runways (top)

10/28: 6,002 x 150 ft (1,829 x 46 m) — paved — lighted

14/32: 5,057 x 150 ft (1,541 x 46 m) — paved — lighted

Latest comments (top)

No comments yet for Millville Municipal Airport

More... (top)

See also NOTAMs and nearby airports and navaids, or visit the Millville Municipal Airport page at the main OurAirports website..